Location: Gorze? G�rny
(49.8500°N, 19.5000°E)
Time: 02:05:15
(UTC+00:00)

NOSS 2-1 (C) - Pass Details

Date: 13 May 2021
Orbit: 430 x 1771 km, 63.3° (Epoch: 26 May)

Event Time Altitude Azimuth Distance (km) Brightness Sun altitude
Rises 22:16:36 0° 318° (NW) 2,817 7.8 -21.4°
Reaches altitude 10° 22:18:34 10° 321° (NW) 2,041 7.0 -21.4°
Maximum altitude 22:23:10 70° 45° (NE) 848 4.3 -21.4°
Enters shadow 22:26:56 24° 125° (SE) 1,834 5.6 -21.5°
